This demonstration page uses our WeatherBlox Daily Observations layout. Learn more.

Left ArrowRight Arrow

Hourly Observations for January 2, 2017

Temp ( °F °C ) Dew Point ( °F °C ) Humidity (%) Winds ( mph kmh ) Pressure ( in mb ) Visibility ( mi km ) Precip ( " mm )
12:53 am 00:53 Clear 47 8.3 46 7.8 97 97 SW 8 13 29.77 1008 10 16 0.00 0.00
1:53 am 01:53 Clear 46 7.8 44 6.7 93 93 WSW 9 15 29.75 1008 10 16 0.00 0.00
2:53 am 02:53 Clear 48 8.9 44 6.7 86 86 W 15 24 29.76 1008 10 16 0.00 0.00
3:53 am 03:53 Clear 47 8.3 42 5.6 83 83 W 13 20 29.77 1008 10 16 0.00 0.00
4:53 am 04:53 Clear 46 7.8 40 4.4 79 79 W 17 28 29.79 1009 10 16 0.00 0.00
5:53 am 05:53 Clear 45 7.2 38 3.3 77 77 W 16 26 29.82 1010 10 16 0.00 0.00
6:53 am 06:53 Clear 45 7.2 37 2.8 74 74 W 15 24 29.85 1011 10 16 0.00 0.00
7:53 am 07:53 Clear 45 7.2 36 2.2 71 71 W 12 19 29.87 1012 10 16 0.00 0.00
8:53 am 08:53 Sunny 46 7.8 36 2.2 68 68 W 14 22 29.92 1013 10 16 0.00 0.00
9:53 am 09:53 Sunny 50 10 34 1.1 54 54 W 20 31 29.94 1014 10 16 0.00 0.00
10:53 am 10:53 Sunny 54 12.2 34 1.1 47 47 W 17 28 29.92 1013 10 16 0.00 0.00
11:53 am 11:53 Sunny 56 13.3 32 0 40 40 W 24 39 29.91 1013 10 16 0.00 0.00
12:53 pm 12:53 Sunny 58 14.4 31 -0.6 36 36 W 24 39 29.87 1012 10 16 0.00 0.00
1:53 pm 13:53 Sunny 60 15.6 31 -0.6 33 33 W 20 31 29.84 1011 10 16 0.00 0.00
2:53 pm 14:53 Sunny 61 16.1 32 0 34 34 W 20 31 29.83 1010 10 16 0.00 0.00
3:53 pm 15:53 Sunny 62 16.7 31 -0.6 31 31 W 17 28 29.85 1011 10 16 0.00 0.00
4:53 pm 16:53 Sunny 62 16.7 30 -1.1 30 30 W 17 28 29.88 1012 10 16 0.00 0.00
5:53 pm 17:53 Sunny 56 13.3 32 0 40 40 S 8 13 29.89 1012 10 16 0.00 0.00
6:53 pm 18:53 Clear 55 12.8 30 -1.1 38 38 WSW 10 17 29.91 1013 10 16 0.00 0.00
7:53 pm 19:53 Clear 55 12.8 30 -1.1 38 38 WSW 13 20 29.94 1014 10 16 0.00 0.00
8:53 pm 20:53 Clear 51 10.6 32 0 48 48 SW 5 7 29.96 1015 10 16 0.00 0.00
9:53 pm 21:53 Clear 50 10 31 -0.6 48 48 WSW 6 9 29.97 1015 10 16 0.00 0.00
10:53 pm 22:53 Clear 50 10 31 -0.6 48 48 WSW 13 20 29.96 1015 10 16 0.00 0.00
11:53 pm 23:53 Clear 47 8.3 33 0.6 59 59 W 3 6 29.97 1015 10 16 0.00 0.00

Powered by AerisWeather